カタログに戻る

ATLAS 5 CENTAUR DEB

運用中GEO
NORAD 52943·DEBRIS·🇺🇸 United States

打ち上げ Jul 1, 2022 から Cape Canaveral Space Force Station

Loading…

TLE

最新Source: Space-Track

元期: Sep 14, 2026, 12:21 UTC

1 52943U 22073D   26257.51490472  .00000015  00000-0  00000+0 0  9996
2 52943   3.9904  77.6720 0007372  66.8631 293.5567  0.98669625 12515

AllMySatでATLAS 5 CENTAUR DEBをリアルタイム追跡

Download on the App Store